This is the latest recevied weather packets stored in our database for station/object KD9JJA. If no packets are shown the sender has not sent any weather packets the latest 10 day(s).
| Time | Temp. | Humidity | Pressure | Rain* | Wind** | Luminosity | Snow |
|---|---|---|---|---|---|---|---|
| 1777767762 | 10.56° C | 51% | 1019.8 hPa | 0 mm | - | 3 W/m² | - |
| 1777767458 | 10.56° C | 51% | 1019.8 hPa | 0 mm | - | 4 W/m² | - |
| 1777767155 | 10.56° C | 49% | 1019.8 hPa | 0 mm | - | 6 W/m² | - |
| 1777766853 | 11.11° C | 49% | 1019.7 hPa | 0 mm | - | 6 W/m² | - |
| 1777766550 | 11.11° C | 48% | 1019.8 hPa | 0 mm | - | 8 W/m² | - |
| 1777766247 | 11.11° C | 48% | 1019.7 hPa | 0 mm | - | 9 W/m² | - |
| 1777765945 | 11.11° C | 47% | 1019.7 hPa | 0 mm | - | 10 W/m² | - |
| 1777765641 | 11.67° C | 48% | 1019.5 hPa | 0 mm | - | 13 W/m² | - |
| 1777765338 | 11.67° C | 47% | 1019.6 hPa | 0 mm | - | 13 W/m² | - |
| 1777765034 | 11.67° C | 46% | 1019.4 hPa | 0 mm | - | 13 W/m² | - |
| 1777764731 | 11.67° C | 43% | 1019.5 hPa | 0 mm | - | 15 W/m² | - |
| 1777764427 | 11.67° C | 43% | 1019.6 hPa | 0 mm | - | 19 W/m² | - |
| 1777764124 | 12.22° C | 49% | 1019.4 hPa | 0 mm | - | 17 W/m² | - |
| 1777763821 | 11.67° C | 44% | 1019.4 hPa | 0 mm | - | 13 W/m² | - |
| 1777763519 | 12.22° C | 45% | 1019.5 hPa | 0 mm | - | 21 W/m² | - |
| 1777763217 | 12.22° C | 48% | 1019.6 hPa | 0 mm | - | 20 W/m² | - |
| 1777762915 | 11.67° C | 48% | 1019.5 hPa | 0 mm | - | 27 W/m² | - |
| 1777762610 | 11.67° C | 50% | 1019.4 hPa | 0 mm | - | 20 W/m² | - |
| 1777762308 | 12.22° C | 47% | 1019.4 hPa | 0 mm | - | 16 W/m² | - |
| 1777762004 | 12.22° C | 53% | 1019.6 hPa | 0 mm | - | 14 W/m² | - |
| 1777761701 | 12.78° C | 46% | 1019.2 hPa | 0 mm | - | 27 W/m² | - |
| 1777761398 | 12.22° C | 46% | 1019.3 hPa | 0 mm | - | 31 W/m² | - |
| 1777761097 | 12.78° C | 48% | 1019.3 hPa | 0 mm | - | 25 W/m² | - |
| 1777760794 | 12.78° C | 51% | 1019.3 hPa | 0 mm | - | 38 W/m² | - |
| 1777760490 | 12.78° C | 47% | 1019.5 hPa | 0 mm | - | 48 W/m² | - |
* Rain latest hour (hover to see other rain measurements)
** Current wind speed in m/s (hover to see current wind gust speed)